Location: Alexander
(41.3564°N, 81.5960°W)
Time: 09:33:34
(UTC+00:00)

Cosmos 489 Rocket - Pass Details

Date: 24 January 2021
Orbit: 952 x 983 km, 74.0° (Epoch: 02 March)

Event Time Altitude Azimuth Distance (km) Brightness Sun altitude
Rises 23:28:03 0° 340° (NNW) 3,697 7.6 -10.5°
Reaches altitude 10° 23:30:37 10° 341° (NNW) 2,744 6.9 -10.9°
Maximum altitude 23:37:00 86° 71° (ENE) 986 4.5 -12.1°
Drops below altitude 10° 23:43:18 10° 161° (SSE) 2,711 6.8 -13.2°
Sets 23:45:49 0° 161° (SSE) 3,650 7.4 -13.7°
